BTK6RT WAHS-WIII

Flight info

Callsign BTK6RT
Flight time 0h 53m
Altitude 32000
Route KIDET W16 IMU
Aircraft A320/M-SDE3FGHIRWY/LB1

Departure

Time 2026-04-15 06:27
Airport Jenderal Ahmad Yani Airport (WAHS)

Arrival

Time 2026-04-15 07:20
Airport Soekarno-Hatta International Airport (WIII)
Time Latitude Longitude Altitude Speed Heading
2026-04-15 06:00 -6.96716 110.37453 19 ft 0 kts 40°
2026-04-15 06:16 -6.96724 110.37447 19 ft 3 kts 38°
2026-04-15 06:16 -6.96740 110.37435 19 ft 3 kts 32°
2026-04-15 06:16 -6.96757 110.37425 19 ft 3 kts 21°
2026-04-15 06:16 -6.96770 110.37420 19 ft 3 kts
2026-04-15 06:17 -6.96790 110.37424 19 ft 1 kts 310°
2026-04-15 06:17 -6.96794 110.37428 19 ft 0 kts 310°
2026-04-15 06:22 -6.96773 110.37404 19 ft 10 kts 310°
2026-04-15 06:22 -6.96742 110.37367 19 ft 7 kts 310°
2026-04-15 06:22 -6.96681 110.37296 19 ft 15 kts 311°
2026-04-15 06:23 -6.96619 110.37222 20 ft 7 kts 300°
2026-04-15 06:23 -6.96637 110.37181 19 ft 6 kts 226°
2026-04-15 06:23 -6.96678 110.37147 18 ft 12 kts 219°
2026-04-15 06:23 -6.96773 110.37067 10 ft 20 kts 222°
2026-04-15 06:24 -6.96769 110.36976 7 ft 17 kts 312°
2026-04-15 06:24 -6.96639 110.36831 6 ft 35 kts 312°
2026-04-15 06:24 -6.96477 110.36643 6 ft 36 kts 308°
2026-04-15 06:24 -6.96323 110.36450 5 ft 28 kts 310°
2026-04-15 06:25 -6.96280 110.36362 4 ft 5 kts 290°
2026-04-15 06:25 -6.96266 110.36366 6 ft 2 kts 41°
2026-04-15 06:25 -6.96268 110.36392 4 ft 5 kts 144°
2026-04-15 06:25 -6.96284 110.36406 4 ft 0 kts 130°
2026-04-15 06:26 -6.96286 110.36409 4 ft 0 kts 130°
2026-04-15 06:26 -6.96290 110.36413 4 ft 7 kts 130°
2026-04-15 06:26 -6.96490 110.36650 5 ft 83 kts 130°
2026-04-15 06:27 -6.97002 110.37254 5 ft 142 kts 130°
2026-04-15 06:27 -6.97755 110.38123 140 ft 180 kts 130°
2026-04-15 06:27 -6.98463 110.39164 848 ft 181 kts 113°
2026-04-15 06:27 -6.98740 110.40396 1609 ft 187 kts 98°
2026-04-15 06:28 -6.99047 110.41713 1987 ft 208 kts 109°
2026-04-15 06:28 -6.99658 110.43171 2373 ft 239 kts 114°
2026-04-15 06:28 -7.00397 110.44758 2936 ft 259 kts 115°
2026-04-15 06:28 -7.01178 110.46414 3841 ft 265 kts 115°
2026-04-15 06:29 -7.01953 110.48098 4782 ft 266 kts 113°
2026-04-15 06:29 -7.02418 110.49896 5619 ft 272 kts 92°
2026-04-15 06:29 -7.02147 110.51690 6429 ft 277 kts 69°
2026-04-15 06:29 -7.01067 110.53345 7308 ft 282 kts 43°
2026-04-15 06:30 -7.00058 110.54097 7730 ft 288 kts 29°
2026-04-15 06:30 -6.97448 110.54879 8232 ft 292 kts 13°
2026-04-15 06:30 -6.95498 110.55300 9094 ft 294 kts 13°
2026-04-15 06:30 -6.93511 110.55733 9885 ft 297 kts 13°
2026-04-15 06:31 -6.91440 110.56189 10351 ft 315 kts 13°
2026-04-15 06:31 -6.89230 110.56682 10660 ft 334 kts 13°
2026-04-15 06:31 -6.86935 110.57203 11321 ft 341 kts 13°
2026-04-15 06:31 -6.84609 110.57728 12043 ft 345 kts 13°
2026-04-15 06:32 -6.82251 110.58260 12742 ft 348 kts 13°
2026-04-15 06:32 -6.80673 110.58614 13201 ft 351 kts 13°
2026-04-15 06:32 -6.77414 110.58982 14084 ft 357 kts 356°
2026-04-15 06:32 -6.75786 110.58716 14512 ft 359 kts 345°
2026-04-15 06:33 -6.72773 110.57248 15360 ft 364 kts 322°
2026-04-15 06:33 -6.71009 110.55461 15956 ft 366 kts 307°
2026-04-15 06:33 -6.69569 110.53335 16546 ft 369 kts 304°
2026-04-15 06:33 -6.68130 110.51180 17161 ft 372 kts 304°
2026-04-15 06:34 -6.67152 110.49713 17554 ft 374 kts 304°
2026-04-15 06:34 -6.65695 110.47529 18133 ft 377 kts 304°
2026-04-15 06:34 -6.64244 110.45355 18675 ft 380 kts 304°
2026-04-15 06:34 -6.62756 110.43132 19167 ft 385 kts 304°
2026-04-15 06:35 -6.61245 110.40888 19702 ft 389 kts 304°
2026-04-15 06:35 -6.59720 110.38628 20242 ft 392 kts 304°
2026-04-15 06:35 -6.58185 110.36350 20724 ft 395 kts 304°
2026-04-15 06:35 -6.56631 110.34045 21175 ft 399 kts 304°
2026-04-15 06:36 -6.55062 110.31710 21613 ft 403 kts 304°
2026-04-15 06:36 -6.53508 110.29390 22017 ft 406 kts 304°
2026-04-15 06:36 -6.51918 110.27014 22412 ft 410 kts 303°
2026-04-15 06:36 -6.50378 110.24587 22790 ft 413 kts 298°
2026-04-15 06:37 -6.49227 110.21938 23178 ft 416 kts 287°
2026-04-15 06:37 -6.48519 110.19108 23569 ft 419 kts 281°
2026-04-15 06:37 -6.47915 110.16227 23962 ft 422 kts 281°
2026-04-15 06:37 -6.47307 110.13337 24338 ft 424 kts 281°
2026-04-15 06:38 -6.46686 110.10416 24730 ft 428 kts 281°
2026-04-15 06:38 -6.46061 110.07481 25133 ft 430 kts 281°
2026-04-15 06:38 -6.45434 110.04529 25504 ft 433 kts 281°
2026-04-15 06:38 -6.44801 110.01553 25870 ft 436 kts 281°
2026-04-15 06:39 -6.44172 109.98603 26244 ft 438 kts 281°
2026-04-15 06:39 -6.43529 109.95598 26605 ft 441 kts 281°
2026-04-15 06:39 -6.42885 109.92580 26955 ft 443 kts 281°
2026-04-15 06:39 -6.42235 109.89541 27285 ft 445 kts 281°
2026-04-15 06:40 -6.41582 109.86491 27580 ft 447 kts 281°
2026-04-15 06:40 -6.40925 109.83417 27885 ft 450 kts 281°
2026-04-15 06:40 -6.40266 109.80335 28196 ft 452 kts 281°
2026-04-15 06:40 -6.39604 109.77230 28494 ft 454 kts 281°
2026-04-15 06:41 -6.38944 109.74122 28791 ft 456 kts 281°
2026-04-15 06:41 -6.38288 109.71037 29092 ft 458 kts 281°
2026-04-15 06:41 -6.37614 109.67860 29401 ft 460 kts 281°
2026-04-15 06:41 -6.36951 109.64745 29702 ft 464 kts 281°
2026-04-15 06:42 -6.36273 109.61570 30029 ft 465 kts 281°
2026-04-15 06:42 -6.35586 109.58380 30313 ft 466 kts 281°
2026-04-15 06:42 -6.34895 109.55180 30573 ft 467 kts 281°
2026-04-15 06:42 -6.34210 109.51982 30794 ft 469 kts 281°
2026-04-15 06:43 -6.33526 109.48765 31010 ft 472 kts 281°
2026-04-15 06:43 -6.32840 109.45532 31236 ft 473 kts 281°
2026-04-15 06:43 -6.32147 109.42283 31461 ft 475 kts 281°
2026-04-15 06:43 -6.31449 109.39038 31755 ft 476 kts 281°
2026-04-15 06:44 -6.30756 109.35834 31822 ft 470 kts 281°
2026-04-15 06:44 -6.30184 109.32660 31846 ft 452 kts 274°
2026-04-15 06:44 -6.30088 109.29543 31835 ft 442 kts 268°
2026-04-15 06:45 -6.30129 109.23398 31833 ft 439 kts 268°
2026-04-15 06:45 -6.30156 109.17261 31847 ft 439 kts 268°
2026-04-15 06:46 -6.30180 109.11117 31856 ft 439 kts 268°
2026-04-15 06:46 -6.30196 109.04983 31845 ft 439 kts 269°
2026-04-15 06:47 -6.30220 108.98830 31845 ft 440 kts 268°
2026-04-15 06:47 -6.30248 108.92672 31847 ft 440 kts 268°
2026-04-15 06:48 -6.30275 108.86523 31848 ft 437 kts 268°
2026-04-15 06:48 -6.30294 108.80473 31825 ft 435 kts 269°
2026-04-15 06:49 -6.30304 108.74390 31500 ft 436 kts 269°
2026-04-15 06:49 -6.30309 108.71342 31679 ft 437 kts 269°
2026-04-15 06:49 -6.30316 108.68282 31825 ft 438 kts 269°
2026-04-15 06:50 -6.30349 108.59060 31837 ft 438 kts 270°
2026-04-15 06:50 -6.30362 108.52925 31819 ft 438 kts 269°
2026-04-15 06:51 -6.30381 108.46838 31816 ft 438 kts 269°
2026-04-15 06:51 -6.30404 108.41284 31826 ft 437 kts 269°
2026-04-15 06:52 -6.29551 108.35263 31817 ft 438 kts 289°
2026-04-15 06:52 -6.28305 108.32469 31817 ft 438 kts 300°
2026-04-15 06:52 -6.26563 108.29959 31810 ft 437 kts 311°
2026-04-15 06:53 -6.22362 108.25553 31809 ft 437 kts 315°
2026-04-15 06:53 -6.18130 108.21182 31809 ft 437 kts 315°
2026-04-15 06:54 -6.13896 108.16797 31807 ft 437 kts 315°
2026-04-15 06:54 -6.09654 108.12406 31805 ft 438 kts 315°
2026-04-15 06:55 -6.05415 108.08038 31460 ft 433 kts 315°
2026-04-15 06:55 -6.03315 108.05881 31207 ft 430 kts 315°
2026-04-15 06:55 -6.01225 108.03739 30963 ft 428 kts 315°
2026-04-15 06:56 -5.99254 108.01545 30812 ft 426 kts 307°
2026-04-15 06:56 -5.97704 107.99013 30840 ft 427 kts 295°
2026-04-15 06:56 -5.96650 107.96220 30621 ft 430 kts 284°
2026-04-15 06:56 -5.96164 107.93246 29903 ft 432 kts 271°
2026-04-15 06:57 -5.96175 107.90234 29389 ft 430 kts 269°
2026-04-15 06:57 -5.96197 107.87239 28839 ft 428 kts 269°
2026-04-15 06:57 -5.96201 107.84256 28306 ft 425 kts 269°
2026-04-15 06:57 -5.96192 107.81297 27761 ft 422 kts 270°
2026-04-15 06:58 -5.96181 107.78367 27242 ft 418 kts 269°
2026-04-15 06:58 -5.96174 107.75451 26716 ft 415 kts 269°
2026-04-15 06:58 -5.96172 107.72557 26196 ft 413 kts 269°
2026-04-15 06:58 -5.96170 107.69688 25676 ft 409 kts 269°
2026-04-15 06:59 -5.96169 107.66834 25163 ft 406 kts 269°
2026-04-15 06:59 -5.96168 107.64004 24681 ft 402 kts 269°
2026-04-15 06:59 -5.96165 107.61240 24505 ft 390 kts 269°
2026-04-15 06:59 -5.96163 107.58533 24105 ft 385 kts 269°
2026-04-15 07:00 -5.96161 107.55863 23610 ft 379 kts 269°
2026-04-15 07:00 -5.96160 107.53227 22842 ft 375 kts 269°
2026-04-15 07:00 -5.96161 107.50630 22219 ft 368 kts 269°
2026-04-15 07:00 -5.96168 107.48088 21795 ft 367 kts 269°
2026-04-15 07:01 -5.96169 107.45534 21324 ft 365 kts 269°
2026-04-15 07:01 -5.96170 107.42987 20889 ft 363 kts 269°
2026-04-15 07:01 -5.96170 107.40465 20432 ft 362 kts 270°
2026-04-15 07:01 -5.96170 107.37955 20043 ft 358 kts 270°
2026-04-15 07:02 -5.96168 107.35454 19608 ft 356 kts 270°
2026-04-15 07:02 -5.96167 107.32973 19141 ft 354 kts 270°
2026-04-15 07:02 -5.96164 107.30517 18749 ft 351 kts 270°
2026-04-15 07:02 -5.96160 107.28062 18344 ft 350 kts 270°
2026-04-15 07:03 -5.96156 107.25653 18015 ft 345 kts 270°
2026-04-15 07:03 -5.96154 107.23260 17369 ft 341 kts 270°
2026-04-15 07:03 -5.96151 107.20884 16918 ft 341 kts 270°
2026-04-15 07:03 -5.96139 107.18509 16551 ft 338 kts 270°
2026-04-15 07:04 -5.96135 107.16159 16170 ft 335 kts 270°
2026-04-15 07:04 -5.96136 107.13813 15751 ft 336 kts 270°
2026-04-15 07:04 -5.96137 107.11478 15499 ft 331 kts 270°
2026-04-15 07:04 -5.96133 107.09167 15129 ft 330 kts 270°
2026-04-15 07:05 -5.96131 107.07643 14888 ft 329 kts 270°
2026-04-15 07:05 -5.96124 107.04609 14419 ft 327 kts 270°
2026-04-15 07:05 -5.96119 107.02325 14068 ft 326 kts 270°
2026-04-15 07:05 -5.96114 107.00059 13751 ft 323 kts 270°
2026-04-15 07:06 -5.96109 106.97810 13418 ft 321 kts 270°
2026-04-15 07:06 -5.96103 106.95576 13066 ft 319 kts 270°
2026-04-15 07:06 -5.96099 106.93351 12692 ft 315 kts 269°
2026-04-15 07:06 -5.96095 106.91155 12029 ft 312 kts 269°
2026-04-15 07:07 -5.96088 106.88987 11386 ft 308 kts 270°
2026-04-15 07:07 -5.96078 106.86837 10706 ft 306 kts 270°
2026-04-15 07:07 -5.96069 106.84766 10298 ft 295 kts 270°
2026-04-15 07:07 -5.96062 106.82709 10023 ft 291 kts 270°
2026-04-15 07:08 -5.96059 106.80686 10008 ft 288 kts 270°
2026-04-15 07:08 -5.96243 106.78692 10014 ft 287 kts 257°
2026-04-15 07:08 -5.96879 106.76763 9600 ft 294 kts 247°
2026-04-15 07:08 -5.97650 106.74879 9334 ft 289 kts 247°
2026-04-15 07:09 -5.98410 106.73013 8943 ft 288 kts 248°
2026-04-15 07:09 -5.99165 106.71150 8554 ft 287 kts 248°
2026-04-15 07:09 -5.99906 106.69322 8181 ft 286 kts 248°
2026-04-15 07:09 -6.00660 106.67457 7767 ft 282 kts 248°
2026-04-15 07:10 -6.01398 106.65641 7129 ft 280 kts 248°
2026-04-15 07:10 -6.02126 106.63846 6664 ft 277 kts 248°
2026-04-15 07:10 -6.02850 106.62056 6258 ft 275 kts 247°
2026-04-15 07:10 -6.03562 106.60299 6069 ft 266 kts 248°
2026-04-15 07:11 -6.04232 106.58651 5896 ft 250 kts 248°
2026-04-15 07:11 -6.04898 106.57039 5654 ft 250 kts 247°
2026-04-15 07:11 -6.05556 106.55412 5305 ft 252 kts 248°
2026-04-15 07:11 -6.06209 106.53780 4959 ft 252 kts 248°
2026-04-15 07:12 -6.06858 106.52159 4684 ft 246 kts 249°
2026-04-15 07:12 -6.07500 106.50563 4145 ft 247 kts 248°
2026-04-15 07:12 -6.08143 106.48966 3723 ft 248 kts 247°
2026-04-15 07:12 -6.08793 106.47357 3543 ft 247 kts 248°
2026-04-15 07:13 -6.09443 106.45750 3281 ft 246 kts 248°
2026-04-15 07:13 -6.10079 106.44183 3147 ft 237 kts 247°
2026-04-15 07:13 -6.10980 106.42863 3044 ft 227 kts 217°
2026-04-15 07:13 -6.12390 106.42290 3004 ft 223 kts 182°
2026-04-15 07:14 -6.13913 106.42508 3008 ft 222 kts 163°
2026-04-15 07:14 -6.15400 106.42861 3012 ft 222 kts 160°
2026-04-15 07:14 -6.16764 106.43554 3010 ft 220 kts 141°
2026-04-15 07:14 -6.17802 106.44669 3001 ft 216 kts 121°
2026-04-15 07:15 -6.18372 106.46014 3004 ft 203 kts 101°
2026-04-15 07:15 -6.18472 106.47399 3007 ft 199 kts 84°
2026-04-15 07:15 -6.18134 106.48737 3006 ft 197 kts 68°
2026-04-15 07:15 -6.17626 106.50006 2901 ft 193 kts 69°
2026-04-15 07:16 -6.17149 106.51202 2674 ft 181 kts 68°
2026-04-15 07:16 -6.16691 106.52351 2436 ft 171 kts 68°
2026-04-15 07:16 -6.16268 106.53424 2220 ft 164 kts 67°
2026-04-15 07:16 -6.15853 106.54467 2006 ft 156 kts 66°
2026-04-15 07:17 -6.15455 106.55466 1802 ft 150 kts 66°
2026-04-15 07:17 -6.15070 106.56427 1618 ft 146 kts 65°
2026-04-15 07:17 -6.14706 106.57344 1436 ft 139 kts 65°
2026-04-15 07:17 -6.14350 106.58236 1246 ft 137 kts 64°
2026-04-15 07:18 -6.14117 106.58821 1128 ft 136 kts 65°
2026-04-15 07:18 -6.13765 106.59708 928 ft 136 kts 63°
2026-04-15 07:18 -6.13648 106.60007 868 ft 135 kts 64°
2026-04-15 07:18 -6.13597 106.60137 841 ft 135 kts 66°
2026-04-15 07:19 -6.13167 106.61210 620 ft 134 kts 69°
2026-04-15 07:19 -6.12831 106.62093 379 ft 132 kts 62°
2026-04-15 07:19 -6.12585 106.62672 285 ft 134 kts 65°
2026-04-15 07:19 -6.12230 106.63545 142 ft 135 kts 65°
2026-04-15 07:20 -6.11882 106.64401 41 ft 124 kts 68°
2026-04-15 07:20 -6.11642 106.65009 40 ft 60 kts 68°
2026-04-15 07:20 -6.11513 106.65333 37 ft 46 kts 68°
2026-04-15 07:20 -6.11418 106.65599 37 ft 37 kts 77°
2026-04-15 07:21 -6.11430 106.65830 36 ft 17 kts 108°
2026-04-15 07:21 -6.11508 106.65839 37 ft 12 kts 248°
2026-04-15 07:21 -6.11536 106.65767 37 ft 10 kts 245°
2026-04-15 07:21 -6.11563 106.65704 37 ft 9 kts 247°
2026-04-15 07:22 -6.11587 106.65647 37 ft 8 kts 247°
2026-04-15 07:22 -6.11609 106.65597 37 ft 7 kts 246°
2026-04-15 07:22 -6.11624 106.65550 37 ft 7 kts 253°
2026-04-15 07:22 -6.11636 106.65510 37 ft 6 kts 252°
2026-04-15 07:23 -6.11653 106.65467 38 ft 11 kts 248°
2026-04-15 07:23 -6.11698 106.65358 38 ft 20 kts 247°
2026-04-15 07:23 -6.11752 106.65222 38 ft 22 kts 248°
2026-04-15 07:23 -6.11812 106.65072 38 ft 21 kts 248°
2026-04-15 07:24 -6.11889 106.64997 38 ft 14 kts 164°
2026-04-15 07:24 -6.11977 106.65014 38 ft 12 kts 185°
2026-04-15 07:24 -6.12059 106.65002 38 ft 11 kts 190°
2026-04-15 07:24 -6.12123 106.64970 38 ft 10 kts 232°
2026-04-15 07:25 -6.12141 106.64929 38 ft 4 kts 247°
2026-04-15 07:25 -6.12157 106.64916 38 ft 2 kts 201°
2026-04-15 07:25 -6.12171 106.64916 38 ft 2 kts 176°
2026-04-15 07:25 -6.12180 106.64918 38 ft 1 kts 162°
2026-04-15 07:26 -6.12184 106.64921 38 ft 0 kts 156°
2026-04-15 07:26 -6.12187 106.64924 38 ft 4 kts 143°
2026-04-15 07:26 -6.12210 106.64938 38 ft 3 kts 147°
2026-04-15 07:26 -6.12221 106.64945 38 ft 0 kts 146°